Skip Page Navigation
NASA JPL Caltech
NASA Logo - Jet Propulsion Laboratory + View the NASA Portal
+ Center for Near-Earth Object Studies
JPL Home Earth Solar System Stars & Galaxies Technology
JPL Solar System Dynamics
BODIES ORBITS EPHEMERIDES TOOLS PHYSICAL DATA DISCOVERY FAQ SITE MAP
IMPORTANT: The SSD Announcement email list is now available. Major changes are coming in the near future, including possible hostname and/or URL changes. To be notified of such changes, subscribe to this email list.

Please visit this page for more details.


JPL Small-Body Database Browser
Search: [ help ]  
441236 (2007 VN188)
Classification: Main-belt Asteroid          SPK-ID: 2441236
Ephemeris | Orbit Diagram | Orbital Elements | Mission Design | Physical Parameters | Discovery Circumstances ]

[ show orbit diagram ]
Orbital Elements at Epoch 2458600.5 (2019-Apr-27.0) TDB
Reference: JPL 13 (heliocentric ecliptic J2000)
 Element Value Uncertainty (1-sigma)   Units 
e .2137218851892594 5.7159e-08  
a 2.647838428897726 4.2502e-08 au
q 2.081937408197137 1.617e-07 au
i 3.242932875586842 1.271e-05 deg
node 120.4015557276351 0.00011769 deg
peri 268.8842865270128 0.00012708 deg
M 252.3979620648414 4.8358e-05 deg
tp 2459070.885195040283
(2020-Aug-09.38519504)
0.00022045 TDB
period 1573.749656270877
4.31
3.7892e-05
1.037e-07
d
yr
n .2287530285172854 5.5078e-09 deg/d
Q 3.213739449598314 5.1586e-08 au
  Orbit Determination Parameters
   # obs. used (total)      96  
   data-arc span      6202 days (16.98 yr)  
   first obs. used      2000-02-10  
   last obs. used      2017-02-02  
   planetary ephem.      DE431  
   SB-pert. ephem.      SB431-N16  
   condition code      0  
   norm. resid. RMS      .73461  
   source      ORB  
   producer      Otto Matic  
   solution date      2017-Apr-09 12:40:22  

Additional Information
 Earth MOID = 1.08945 au 
 Jupiter MOID = 2.23442 au 
 T_jup = 3.357 
[ show covariance matrix ]

Ephemeris | Orbit Diagram | Orbital Elements | Mission Design | Physical Parameters | Discovery Circumstances ]

Physical Parameter Table
Parameter Symbol Value Units Sigma Reference Notes
absolute magnitude H 17.4   n/a MPO408992  

441236 (2007 VN188)          Discovered 2007-Nov-02 by Spacewatch at Kitt Peak
Reference: Last Updated: 2015-09-02

Alternate Designations
 2007 VN188 = 2007 VY206 
Ephemeris | Orbit Diagram | Orbital Elements | Mission Design | Physical Parameters | Discovery Circumstances ]
ABOUT SSD CREDITS/AWARDS PRIVACY/COPYRIGHT GLOSSARY LINKS
FirstGov
(server date/time)  
NASA Home Page
Site Manager:   Ryan S. Park
Webmaster  Alan B. Chamberlin